Regional Weather Roundup
Issued by NWS

Home | Current Version | Previous Version | Text Only | Print | Product List | Glossary On
Versions: 1 2 3 4 5 6 7 8 9 10 11 12 13 14 15 16 17 18 19 20 21 22 23 24 25 26 27 28 29 30 31 32 33 34 35 36 37 38 39 40 41 42 43 44 45 46 47 48 49 50
588
ASUS45 KBOU 212010
RWRCO

WEATHER ROUNDUP FOR COLORADO
NATIONAL WEATHER SERVICE DENVER/BOULDER CO
200 PM MDT WED AUG 21 2019

NOTE: "FAIR" INDICATES FEW OR NO CLOUDS BELOW 12000 FEET WITH NO
SIGNIFICANT WEATHER AND/OR OBSTRUCTIONS TO VISIBILITY.

COZ001>005-013-030-031-212100-
...NORTHWEST COLORADO...

CITY           SKY/WX    TMP DP  RH WIND       PRES   REMARKS
CRAIG          FAIR      93  23   8 MISG      30.16F
HAYDEN         FAIR      87  25  10 W8        30.21F
MEEKER         FAIR      90  23   9 SE7       30.17F
RANGELY        FAIR      93  27   9 CALM      30.08F
RABBIT EARS PA FAIR      68  28  22 MISG      30.55S
STEAMBOAT SPGS FAIR      84  33  15 CALM      30.22F
WALDEN         NOT AVBL
$$

COZ006>008-011-212100-
...WEST CENTRAL VALLEYS...

CITY           SKY/WX    TMP DP  RH WIND       PRES   REMARKS
GRAND JUNCTION FAIR      94  34  12 VRB5      30.04F
MONTROSE       FAIR      91  31  11 N9        30.13F
EAGLE          FAIR      88  25  10 VRB3      30.19F
RIFLE          FAIR      93  20   7 VRB3      30.09F
DELTA          FAIR      95  29   9 S6        30.07F
NUCLA          FAIR      91  23   8 W7        30.16F
$$

COZ017>023-064>068-212100-
...SOUTHWEST COLORADO...

CITY           SKY/WX    TMP DP  RH WIND       PRES   REMARKS
DURANGO        FAIR      86  40  19 W7        30.21F
CORTEZ         FAIR      88  42  20 SW5       30.14F
PAGOSA SPRINGS FAIR      80  38  22 W6        30.33R
TELLURIDE      FAIR      72  32  23 W6        30.44S
WOLF CREEK PAS TSTM      46  32  57 NW6G18    30.76R
$$

COZ009-010-012-014-032>034-037-058>063-212100-
...CENTRAL COLORADO...

CITY           SKY/WX    TMP DP  RH WIND       PRES   REMARKS
ASPEN          FAIR      84  22  10 NW14G20   30.27F
BUENA VISTA    FAIR      78  26  14 NE7       30.32F
COPPER MTN     PTSUNNY   64  21  19 W8G18     30.66F
BERTHOUD PASS  PTSUNNY   55  41  58 NW8G16    30.70S
COTTONWOOD PAS FAIR      72  27  18 CALM      30.49R THUNDER
GUNNISON       FAIR      76  41  28 SW5       30.29F
GRANBY         FAIR      81  24  12 CALM      30.33F
KREMMLING      FAIR      84  32  15 CALM      30.26F
LEADVILLE      FAIR      73  21  14 W14G22    30.45F
MONARCH PASS   FAIR      63  25  23 MISG      30.76S
SALIDA         FAIR      80  36  20 SE6       30.35S
SUNLIGHT       NOT AVBL
WILKERSON PASS FAIR      57  45  62 E9G20     30.64S
$$

COZ069>075-212100-
...SAN LUIS VALLEY/SANGRE DE CRISTO MOUNTAINS...

CITY           SKY/WX    TMP DP  RH WIND       PRES   REMARKS
ALAMOSA        FAIR      73  40  30 W10       30.31F
DEL NORTE      PTSUNNY   69  38  31 NW21G31   30.40R
LA VETA PASS   NOT AVBL
SAGUACHE       CLOUDY    72  43  35 CALM      30.36R
$$

COZ035-036-038>040-212100-
...NORTHERN COLORADO FRONT RANGE...

CITY           SKY/WX    TMP DP  RH WIND       PRES   REMARKS
DENVER INTL AP PTSUNNY   81  54  39 E8G25     30.18F
AURORA         PTSUNNY   80  56  43 NE10      30.18F
FRONT RANGE AP NOT AVBL
ERIE MUNI ARPT   N/A     80  54  40 N7        30.22F
BOULDER MUN AP FAIR      81  54  39 SE5       30.18F
CENTENNIAL     PTSUNNY   80  57  45 N8        30.20F
BROOMFIELD     PTSUNNY   77  55  47 E3        30.21F
FORT COLLINS   FAIR      81  57  43 SE10G16   30.17F
LONGMONT       FAIR      83  56  38 E7        30.18F
$$

COZ041-046-047-076>085-087-088-212100-
...PIKES PEAK/PALMER DIVIDE AND SOUTHERN FOOTHILLS...

CITY           SKY/WX    TMP DP  RH WIND       PRES   REMARKS
COLO. SPRINGS  PTSUNNY   82  53  36 SE12G18   30.22F
A. F. ACADEMY  PTSUNNY   78  51  39 S9        30.24R THUNDER
SCHRIEVER AFB  NOT AVBL
CHEYENNE MTN   PTSUNNY   75  53  46 S10       30.23F
ELLICOTT       FAIR      80  51  37 SE9       30.23F
FALCON         FAIR      81  48  31 S7        30.29F
FORT CARSON    FAIR      83  52  34 S9        30.19F
LIMON          FAIR      82  55  39 E8        30.18F
MONUMENT HILL  NOT AVBL
CANON CITY     NOT AVBL
WALSENBURG     NOT AVBL
TRINIDAD       FAIR      79  51  37 VRB5      30.20F
$$

COZ042>045-048>051-090-091-212100-
...NORTHEAST COLORADO...

CITY           SKY/WX    TMP DP  RH WIND       PRES   REMARKS
GREELEY ARPT     N/A     82  58  43 S5        30.16F
AKRON            N/A     83  55  38 MISG      30.15F
BURLINGTON     FAIR      82  61  48 E8G17     30.13F
WRAY           CLOUDY    82  59  44 NE6       30.11F
YUMA           FAIR      81  21  11 NW5       30.13F
STERLING       FAIR      82  61  47 N5        30.12F
HOLYOKE        FAIR      84  61  45 E6        30.12F
FORT MORGAN    FAIR      83  52  34 NE6       30.15F
$$

COZ086-089-092>099-212100-
...SOUTHEAST COLORADO...

CITY           SKY/WX    TMP DP  RH WIND       PRES   REMARKS
PUEBLO         FAIR      83  57  41 SE9       30.12F
LA JUNTA       FAIR      86  59  39 E10G22    30.10F
LAMAR          FAIR      85  62  46 NE9       30.05F
SPRINGFIELD    NOT AVBL
$$




USA.gov is the U.S. government's official web portal to all federal, state and local government web resources and services.